FW9155 Weather Reports


time (UTC)temp
F
wind
direction
speed
knots
gust
knots
rain 1hr
in
rain 24hr
in
rain mn
in
humidity
%
barometer
mb
20260906195253 99 34 1.7 5.2 0.00 0.00 0.00 40 1013.8
20260906194752 98 216 3.5 8.7 0.00 0.00 0.00 40 1013.7
20260906194225 98 243 3.5 8.7 0.00 0.00 0.00 40 1013.7
20260906193928 98 270 1.7 7.0 0.00 0.00 0.00 41 1013.8
20260906193155 98 201 1.7 5.2 0.00 0.00 0.00 43 1014.0
20260906192654 97 355 2.6 4.3 0.00 0.00 0.00 40 1014.0
20260906192125 98 240 1.7 6.1 0.00 0.00 0.00 40 1014.1
20260906191624 98 209 0.9 5.2 0.00 0.00 0.00 40 1014.2
20260906191055 98 266 1.7 6.1 0.00 0.00 0.00 41 1014.2
20260906191039 97 236 4.3 10.4 0.00 0.00 0.00 42 1014.4
20260906190050 97 273 3.5 10.4 0.00 0.00 0.00 42 1014.4
20260906185547 97 263 0.9 3.5 0.00 0.00 0.00 42 1014.5
20260906185045 97 47 0.9 7.8 0.00 0.00 0.00 42 1014.5
20260906184542 96 36 3.5 7.8 0.00 0.00 0.00 42 1014.6
20260906184038 96 262 4.3 9.6 0.00 0.00 0.00 42 1014.6
20260906183533 96 144 4.3 9.6 0.00 0.00 0.00 42 1014.7
20260906183004 96 134 3.5 7.8 0.00 0.00 0.00 43 1014.7
20260906182504 96 119 1.7 7.8 0.00 0.00 0.00 43 1014.9
20260906181947 96 111 1.7 7.8 0.00 0.00 0.00 45 1015.1
20260906181445 96 331 2.6 7.8 0.00 0.00 0.00 44 1015.3
20260906181210 96 31 3.5 7.0 0.00 0.00 0.00 43 1015.5
20260906180419 96 5 4.3 7.0 0.00 0.00 0.00 44 1015.6
20260906175918 96 240 4.3 8.7 0.00 0.00 0.00 44 1015.7
20260906175349 96 269 3.5 7.8 0.00 0.00 0.00 45 1015.8
20260906174848 96 287 2.6 7.8 0.00 0.00 0.00 45 1016.0
20260906174319 96 267 1.7 4.3 0.00 0.00 0.00 46 1016.0
20260906173817 96 128 0.9 4.3 0.00 0.00 0.00 44 1016.1
20260906173251 96 319 0.9 2.6 0.00 0.00 0.00 46 1016.3
20260906172747 96 57 0.9 2.6 0.00 0.00 0.00 45 1016.5
20260906172246 96 5 0.9 2.6 0.00 0.00 0.00 45 1016.5
20260906171942 96 158 1.7 6.1 0.00 0.00 0.00 45 1016.5
20260906171214 95 163 2.6 6.1 0.00 0.00 0.00 47 1016.5
20260906170651 95 126 1.7 6.1 0.00 0.00 0.00 46 1016.7
20260906170129 95 153 0.9 2.6 0.00 0.00 0.00 45 1016.7
20260906165628 94 92 0.9 3.5 0.00 0.00 0.00 46 1016.8
20260906165326 94 313 2.6 5.2 0.00 0.00 0.00 46 1016.8
20260906165031 94 279 2.6 6.1 0.00 0.00 0.00 46 1016.8
20260906164033 94 244 1.7 6.1 0.00 0.00 0.00 46 1016.9
20260906163508 94 258 2.6 7.0 0.00 0.00 0.00 48 1016.9
20260906162945 94 233 2.6 7.0 0.00 0.00 0.00 47 1016.9
20260906162420 94 265 2.6 7.0 0.00 0.00 0.00 48 1016.8
20260906161919 94 273 2.6 7.0 0.00 0.00 0.00 48 1016.8
20260906161417 94 314 2.6 6.1 0.00 0.00 0.00 47 1016.8
20260906160859 94 263 2.6 8.7 0.00 0.00 0.00 49 1016.8
20260906160359 93 286 1.7 6.1 0.00 0.00 0.00 51 1016.8
20260906160054 93 301 2.6 7.8 0.00 0.00 0.00 52 1016.9
20260906155337 92 292 2.6 7.8 0.00 0.00 0.00 50 1016.9
20260906155245 92 294 1.7 4.3 0.00 0.00 0.00 51 1016.9
20260906154305 92 307 2.6 6.1 0.00 0.00 0.00 52 1016.8
20260906153804 92 242 1.7 6.1 0.00 0.00 0.00 52 1016.8
20260906153303 92 279 0.9 4.3 0.00 0.00 0.00 51 1016.7
20260906152803 91 175 1.7 4.3 0.00 0.00 0.00 52 1016.7
20260906152458 91 234 1.7 4.3 0.00 0.00 0.00 53 1016.8
20260906151722 91 242 1.7 6.1 0.00 0.00 0.00 53 1016.7
20260906151157 92 273 0.9 6.1 0.00 0.00 0.00 51 1016.7
20260906150657 91 90 0.0 0.9 0.00 0.00 0.00 55 1016.7
20260906150141 90 73 0.9 1.7 0.00 0.00 0.00 57 1016.6
20260906145618 89 71 0.9 2.6 0.00 0.00 0.00 56 1016.5
20260906145055 89 128 0.9 2.6 0.00 0.00 0.00 56 1016.6
20260906144554 89 111 0.9 1.7 0.00 0.00 0.00 60 1016.5
20260906144035 87 137 1.7 2.6 0.00 0.00 0.00 59 1016.5
20260906143534 87 137 1.7 2.6 0.00 0.00 0.00 60 1016.5
20260906143239 86 156 1.7 3.5 0.00 0.00 0.00 60 1016.5
20260906142440 86 134 2.6 3.5 0.00 0.00 0.00 62 1016.5
20260906141927 85 132 1.7 3.5 0.00 0.00 0.00 62 1016.6
20260906141425 85 161 1.7 3.5 0.00 0.00 0.00 61 1016.6
20260906141142 84 161 1.7 3.5 0.00 0.00 0.00 63 1016.7
20260906140359 84 161 0.9 2.6 0.00 0.00 0.00 64 1016.5
20260906135833 83 119 0.9 1.7 0.00 0.00 0.00 65 1016.6
20260906135307 83 130 0.9 1.7 0.00 0.00 0.00 66 1016.5
20260906134738 82 132 0.9 1.7 0.00 0.00 0.00 67 1016.5
20260906134456 82 118 0.9 3.5 0.00 0.00 0.00 67 1016.5
20260906133712 81 129 0.9 3.5 0.00 0.00 0.00 67 1016.5
20260906133215 80 127 0.9 1.7 0.00 0.00 0.00 70 1016.4
20260906132923 80 113 0.9 0.9 0.00 0.00 0.00 72 1016.4
20260906132200 79 122 0.9 0.9 0.00 0.00 0.00 73 1016.4
20260906131633 78 101 0.9 0.9 0.00 0.00 0.00 74 1016.2
20260906131323 78 104 0.9 0.9 0.00 0.00 0.00 74 1016.1
20260906130538 77 88 0.9 0.9 0.00 0.00 0.00 75 1016.1
20260906130037 76 106 0.9 0.9 0.00 0.00 0.00 75 1016.1
20260906125510 76 98 0.9 1.7 0.00 0.00 0.00 76 1016.1
20260906125207 76 88 0.9 0.9 0.00 0.00 0.00 76 1015.9
20260906124416 75 86 0.0 0.9 0.00 0.00 0.00 76 1015.8
20260906124135 75 98 0.0 0.0 0.00 0.00 0.00 76 1015.8
20260906123413 75 74 0.0 0.0 0.00 0.00 0.00 76 1015.7
20260906122847 75 74 0.0 0.9 0.00 0.00 0.00 77 1015.6
20260906122320 74 76 0.0 0.9 0.00 0.00 0.00 77 1015.5
20260906121752 74 83 0.9 0.9 0.00 0.00 0.00 78 1015.5
20260906121248 74 88 0.0 0.9 0.00 0.00 0.00 78 1015.4
20260906120748 74 85 0.9 0.9 0.00 0.00 0.00 77 1015.4
20260906120220 74 84 0.9 1.7 0.00 0.00 0.00 77 1015.3
20260906115718 74 86 0.9 1.7 0.00 0.00 0.00 78 1015.1
20260906115150 74 93 0.9 0.9 0.00 0.00 0.00 77 1014.9
20260906114648 74 89 0.9 0.9 0.00 0.00 0.00 77 1014.9
20260906114349 74 88 0.9 0.9 0.00 0.00 0.00 77 1014.7
20260906113845 74 86 0.9 0.9 0.00 0.00 0.00 77 1014.7
20260906113050 74 74 0.9 0.9 0.00 0.00 0.00 77 1014.6
20260906112549 74 74 0.9 0.9 0.00 0.00 0.00 77 1014.6
20260906112020 75 84 0.9 1.7 0.00 0.00 0.00 77 1014.5
20260906111518 75 86 0.9 1.7 0.00 0.00 0.00 76 1014.6
20260906110950 75 82 0.9 1.7 0.00 0.00 0.00 76 1014.6
20260906110449 76 82 0.9 1.7 0.00 0.00 0.00 75 1014.7
20260906105941 76 81 0.9 1.7 0.00 0.00 0.00 75 1014.7
20260906105441 76 81 0.9 1.7 0.00 0.00 0.00 74 1014.6
20260906105138 76 76 0.9 2.6 0.00 0.00 0.00 75 1014.8
20260906104631 76 78 0.9 2.6 0.00 0.00 0.00 74 1014.7
20260906103847 76 82 0.9 0.9 0.00 0.00 0.00 74 1014.7
20260906103335 76 84 0.9 0.9 0.00 0.00 0.00 73 1014.7
20260906103058 77 87 0.9 1.7 0.00 0.00 0.00 72 1014.7
20260906102306 76 74 0.0 1.7 0.00 0.00 0.00 72 1014.7
20260906101804 76 74 0.0 0.9 0.00 0.00 0.00 72 1014.8
20260906101236 76 76 0.9 1.7 0.00 0.00 0.00 72 1014.7
20260906101221 76 74 0.0 1.7 0.00 0.00 0.00 72 1014.7
20260906100720 77 92 0.0 0.9 0.00 0.00 0.00 72 1014.7
20260906095729 77 92 0.0 0.9 0.00 0.00 0.00 72 1014.7
20260906095222 77 92 0.0 1.7 0.00 0.00 0.00 72 1014.6
20260906094721 77 92 0.0 0.9 0.00 0.00 0.00 74 1014.6
20260906094152 77 92 0.0 0.9 0.00 0.00 0.00 72 1014.6
20260906093651 77 92 0.0 0.9 0.00 0.00 0.00 71 1014.5
20260906093122 77 92 0.0 1.7 0.00 0.00 0.00 71 1014.6
20260906092621 77 89 0.9 1.7 0.00 0.00 0.00 71 1014.5
20260906092055 77 104 0.9 0.9 0.00 0.00 0.00 71 1014.5
20260906091749 77 94 0.9 0.9 0.00 0.00 0.00 71 1014.5
20260906091024 78 90 0.0 0.9 0.00 0.00 0.00 71 1014.4
20260906090457 78 88 0.0 1.7 0.00 0.00 0.00 71 1014.5
20260906085955 78 90 0.9 1.7 0.00 0.00 0.00 71 1014.5
20260906085453 78 88 0.9 0.9 0.00 0.00 0.00 70 1014.5
20260906084927 78 84 0.9 0.9 0.00 0.00 0.00 70 1014.6
20260906084626 78 88 0.9 0.9 0.00 0.00 0.00 70 1014.5
20260906084104 78 82 0.9 0.9 0.00 0.00 0.00 69 1014.4
20260906083335 78 94 0.9 0.9 0.00 0.00 0.00 69 1014.5
20260906082821 78 87 0.9 1.7 0.00 0.00 0.00 70 1014.5
20260906082321 78 81 0.0 1.7 0.00 0.00 0.00 70 1014.5
20260906081824 78 86 0.0 1.7 0.00 0.00 0.00 70 1014.4
20260906081300 78 88 0.0 0.9 0.00 0.00 0.00 70 1014.3
20260906080800 78 88 0.9 1.7 0.00 0.00 0.00 71 1014.4
20260906080238 78 89 0.0 0.9 0.00 0.00 0.00 70 1014.4
20260906075720 79 89 0.0 0.9 0.00 0.00 0.00 69 1014.4
20260906075221 79 80 0.0 1.7 0.00 0.00 0.00 69 1014.3
20260906074649 79 80 0.0 1.7 0.00 0.00 0.00 68 1014.2
20260906074148 79 78 0.0 1.7 0.00 0.00 0.00 67 1014.2
20260906073651 79 77 0.9 1.7 0.00 0.00 0.00 67 1014.3
20260906073128 79 101 0.9 1.7 0.00 0.00 0.00 66 1014.1
20260906072630 80 101 0.9 1.7 0.00 0.00 0.00 66 1014.1
20260906072333 80 101 0.0 0.9 0.00 0.00 0.00 67 1014.1
20260906071619 80 105 0.0 1.7 0.00 0.00 0.00 66 1014.2
20260906071054 80 103 0.0 1.7 0.00 0.00 0.00 65 1014.2
20260906070537 80 118 0.0 0.0 0.00 0.00 0.00 65 1014.2
20260906070038 81 118 0.0 0.0 0.00 0.00 0.00 64 1014.3
20260906065538 81 118 0.0 0.0 0.00 0.00 0.00 64 1014.2
20260906065039 81 118 0.0 0.0 0.00 0.00 0.00 63 1014.2
20260906064511 81 118 0.0 0.9 0.00 0.00 0.00 63 1014.1
20260906064004 81 118 0.9 1.7 0.00 0.00 0.00 62 1014.1
20260906063441 82 118 0.9 1.7 0.00 0.00 0.00 62 1014.1
20260906062914 82 111 0.9 1.7 0.00 0.00 0.00 62 1014.1
20260906062405 82 114 0.9 0.9 0.00 0.00 0.00 62 1014.2
20260906062344 82 111 0.9 1.7 0.00 0.00 0.00 62 1014.2
20260906061405 82 129 0.9 1.7 0.00 0.00 0.00 63 1014.3
20260906060906 82 112 0.9 1.7 0.00 0.00 0.00 63 1014.4
20260906060403 82 92 0.9 1.7 0.00 0.00 0.00 63 1014.4
20260906060128 82 90 0.9 1.7 0.00 0.00 0.00 62 1014.4
20260906055338 83 103 0.9 1.7 0.00 0.00 0.00 61 1014.5
20260906054811 83 113 0.9 1.7 0.00 0.00 0.00 60 1014.6
20260906054246 83 113 0.9 1.7 0.00 0.00 0.00 60 1014.6
20260906053729 83 98 0.9 1.7 0.00 0.00 0.00 60 1014.4
20260906053229 83 124 0.9 1.7 0.00 0.00 0.00 60 1014.4
20260906052733 83 115 0.9 0.9 0.00 0.00 0.00 60 1014.4
20260906052425 83 121 0.9 0.9 0.00 0.00 0.00 60 1014.3
20260906051701 83 130 0.9 0.9 0.00 0.00 0.00 60 1014.4
20260906051157 83 128 0.9 0.9 0.00 0.00 0.00 60 1014.4
20260906050653 83 121 0.9 1.7 0.00 0.00 0.00 61 1014.3
20260906050127 83 119 0.9 1.7 0.00 0.00 0.00 61 1014.4
20260906045846 83 116 0.9 0.9 0.00 0.00 0.00 61 1014.4
20260906045122 83 129 0.9 0.9 0.00 0.00 0.00 61 1014.3
20260906044554 83 104 0.9 1.7 0.00 0.00 0.00 60 1014.5
20260906044314 84 106 0.0 1.7 0.00 0.00 0.00 60 1014.4
20260906043532 84 101 0.0 0.9 0.00 0.00 0.00 60 1014.3
20260906043002 85 84 0.9 1.7 0.00 0.00 0.00 59 1014.4
20260906042424 85 80 0.9 1.7 0.00 0.00 0.00 58 1014.3
20260906042153 85 104 0.9 3.5 0.00 0.00 0.00 57 1014.4
20260906041354 86 115 1.7 3.5 0.00 0.00 0.00 57 1014.4
20260906040852 86 134 1.7 3.5 0.00 0.00 0.00 57 1014.4
20260906040326 86 142 2.6 4.3 0.00 0.00 0.00 57 1014.4
20260906040022 86 159 2.6 4.3 0.00 0.00 0.00 56 1014.2
20260906035232 86 161 2.6 6.1 0.00 0.00 0.00 56 1014.0
20260906035218 87 148 3.5 6.1 0.00 0.00 0.00 55 1014.0
20260906034443 87 152 3.5 6.1 0.00 0.00 0.00 55 1013.9
20260906033717 87 147 3.5 6.1 0.00 0.00 0.00 55 1014.0
20260906033148 87 140 3.5 6.1 0.00 0.00 0.00 55 1013.8
20260906032646 87 148 3.5 6.1 0.00 0.00 0.00 55 1013.8
20260906032142 87 159 2.6 6.1 0.00 0.00 0.00 56 1013.7
20260906031640 87 140 1.7 5.2 0.00 0.00 0.00 56 1013.7
20260906031338 87 150 1.7 4.3 0.00 0.00 0.00 55 1013.8
20260906030550 87 157 2.6 4.3 0.00 0.00 0.00 55 1013.9
20260906030240 87 148 1.7 4.3 0.00 0.00 0.00 55 1013.9
20260906025516 87 164 1.7 4.3 0.00 0.00 0.00 54 1013.9
20260906025015 88 158 1.7 5.2 0.00 0.00 0.00 54 1013.8
20260906024453 88 158 1.7 5.2 0.00 0.00 0.00 54 1013.7
20260906024435 88 138 2.6 5.2 0.00 0.00 0.00 53 1013.7
20260906023450 88 132 3.5 5.2 0.00 0.00 0.00 53 1013.7
20260906022925 89 134 2.6 4.3 0.00 0.00 0.00 53 1013.5
20260906022621 89 142 2.6 4.3 0.00 0.00 0.00 53 1013.6
20260906021904 89 163 1.7 5.2 0.00 0.00 0.00 53 1013.4
20260906021342 89 148 1.7 5.2 0.00 0.00 0.00 53 1013.4
20260906020832 89 158 1.7 3.5 0.00 0.00 0.00 53 1013.3
20260906020330 90 169 1.7 3.5 0.00 0.00 0.00 53 1013.3
20260906015832 90 169 0.9 2.6 0.00 0.00 0.00 50 1013.3
20260906015323 90 171 1.7 3.5 0.00 0.00 0.00 50 1013.3
20260906014821 90 171 1.7 3.5 0.00 0.00 0.00 50 1013.1
20260906014324 91 171 0.9 3.5 0.00 0.00 0.00 49 1013.1
20260906013806 91 171 0.9 3.5 0.00 0.00 0.00 49 1013.0
20260906013305 91 174 1.7 3.5 0.00 0.00 0.00 49 1013.0
20260906012739 91 161 1.7 3.5 0.00 0.00 0.00 48 1012.9
20260906012221 92 161 1.7 3.5 0.00 0.00 0.00 48 1012.9
20260906011657 92 158 0.9 2.6 0.00 0.00 0.00 48 1012.8
20260906011135 92 140 1.7 2.6 0.00 0.00 0.00 47 1012.8
20260906010612 93 146 1.7 3.5 0.00 0.00 0.00 47 1012.7
20260906010047 93 159 1.7 3.5 0.00 0.00 0.00 46 1012.7
20260906005526 93 159 0.9 3.5 0.00 0.00 0.00 46 1012.5
20260906005010 93 151 0.9 2.6 0.00 0.00 0.00 46 1012.5
20260906004447 94 129 0.9 2.6 0.00 0.00 0.00 45 1012.5
20260906003922 94 149 0.9 1.7 0.00 0.00 0.00 45 1012.6
20260906003417 94 149 0.9 1.7 0.00 0.00 0.00 45 1012.6
20260906002917 94 155 0.9 3.5 0.00 0.00 0.00 45 1012.6
20260906002639 95 157 0.9 3.5 0.00 0.00 0.00 45 1012.6
20260906001908 95 162 0.9 2.6 0.00 0.00 0.00 45 1012.7
20260906001406 95 169 0.9 3.5 0.00 0.00 0.00 44 1012.5
20260906000840 96 152 1.7 3.5 0.00 0.00 0.00 43 1012.5
20260906000318 96 204 1.7 4.3 0.00 0.00 0.00 42 1012.5
20260905235749 96 188 2.6 5.2 0.00 0.00 0.00 42 1012.6
20260905235448 97 146 3.5 7.8 0.00 0.00 0.00 41 1012.6
20260905234653 97 207 3.5 7.8 0.00 0.00 0.00 40 1012.6
20260905234418 98 194 2.6 5.2 0.00 0.00 0.00 40 1012.6
20260905233647 98 168 2.6 4.3 0.00 0.00 0.00 39 1012.6
20260905233143 98 178 3.5 7.8 0.00 0.00 0.00 39 1012.8
20260905232621 98 167 5.2 9.6 0.00 0.00 0.00 39 1012.7
20260905232051 98 165 4.3 12.2 0.00 0.00 0.00 39 1012.6
20260905231524 98 168 4.3 12.2 0.00 0.00 0.00 40 1012.6
20260905231021 98 107 7.0 13.9 0.00 0.00 0.00 39 1012.5
20260905230453 98 130 7.0 13.9 0.00 0.00 0.00 39 1012.5
20260905230207 98 133 5.2 10.4 0.00 0.00 0.00 38 1012.5
20260905225447 98 126 3.5 9.6 0.00 0.00 0.00 38 1012.6
20260905224945 98 140 4.3 15.6 0.00 0.00 0.00 40 1012.5
20260905224433 98 169 4.3 15.6 0.00 0.00 0.00 39 1012.7
20260905224157 99 117 4.3 9.6 0.00 0.00 0.00 38 1012.7
20260905223407 99 126 6.1 10.4 0.00 0.00 0.00 38 1012.6
20260905222904 99 142 5.2 10.4 0.00 0.00 0.00 37 1012.6
20260905222402 99 188 5.2 10.4 0.00 0.00 0.00 37 1012.6
20260905221835 99 161 5.2 11.3 0.00 0.00 0.00 38 1012.6
20260905221333 99 173 5.2 11.3 0.00 0.00 0.00 39 1012.6
20260905221054 99 130 5.2 12.2 0.00 0.00 0.00 38 1012.6
20260905220534 99 121 5.2 12.2 0.00 0.00 0.00 39 1012.5
20260905215737 98 132 4.3 9.6 0.00 0.00 0.00 40 1012.5
20260905215235 98 134 5.2 11.3 0.00 0.00 0.00 39 1012.5
20260905214711 99 240 7.0 13.0 0.00 0.00 0.00 40 1012.5
20260905214141 98 180 7.8 13.0 0.00 0.00 0.00 40 1012.5
20260905213637 99 124 7.0 13.0 0.00 0.00 0.00 41 1012.5
20260905213135 99 163 5.2 13.0 0.00 0.00 0.00 39 1012.5
20260905212634 99 137 5.2 10.4 0.00 0.00 0.00 39 1012.5
20260905212108 99 190 7.8 15.6 0.00 0.00 0.00 38 1012.5
20260905211603 99 157 7.8 15.6 0.00 0.00 0.00 38 1012.7
20260905211323 99 233 7.0 10.4 0.00 0.00 0.00 38 1012.8
20260905210533 99 215 5.2 11.3 0.00 0.00 0.00 37 1012.8
20260905210032 98 163 3.5 9.6 0.00 0.00 0.00 40 1012.9
20260905205503 98 137 5.2 11.3 0.00 0.00 0.00 40 1013.0
20260905205222 98 126 6.1 14.8 0.00 0.00 0.00 41 1013.1
20260905204433 97 155 4.3 14.8 0.00 0.00 0.00 42 1013.2
20260905203931 97 130 5.2 13.0 0.00 0.00 0.00 41 1013.2
20260905203406 98 123 5.2 13.0 0.00 0.00 0.00 41 1013.3
20260905202837 98 192 4.3 13.9 0.00 0.00 0.00 42 1013.3
20260905202335 98 95 7.0 13.9 0.00 0.00 0.00 41 1013.4
20260905202033 97 145 7.0 13.9 0.00 0.00 0.00 42 1013.6
20260905201305 98 130 6.1 13.9 0.00 0.00 0.00 41 1013.6
20260905200836 98 193 6.1 11.3 0.00 0.00 0.00 42 1013.5
20260905195734 97 153 6.1 11.3 0.00 0.00 0.00 43 1013.6